Chillicothe, MO

3:58 PM CST on November 21, 2017 (GMT -0600)
Chillicothe

Weather History for KCDJ - February, 2014

Change the Weather History Date:

Thursday, February 20, 2014

  Actual Average (KIRK) Record (KIRK)
Temperature  
Mean Temperature 40 °F -  
Max Temperature 44 °F 42 °F 70 °F (2016)
Min Temperature 33 °F 23 °F -9 °F (1929)
Degree Days  
Heating Degree Days 26    
Moisture  
Dew Point 33 °F    
Average Humidity 80    
Maximum Humidity 100    
Minimum Humidity 56    
Precipitation  
Precipitation 0.76 in - - ()
Sea Level Pressure  
Sea Level Pressure 29.54 in    
Wind  
Wind Speed 8 mph (NW)    
Max Wind Speed 17 mph    
Max Gust Speed 31 mph    
Averages and records for this station are not official NWS values.
T = Trace of Precipitation, MM = Missing Value Source: NWS Daily Summary

Daily Weather History Graph

Daily Weather History Graph

Search for Another Location

Airport or City:

Trip Planner

Search our weather history database for the weather conditions in past years. The results will help you decide how hot, cold, wet, or windy it might be!

Date:

Astronomy

Feb. 20, 2014 Rise Set
Actual Time 7:00 AM CST 5:56 PM CST
Civil Twilight 6:32 AM CST 6:23 PM CST
Nautical Twilight 6:01 AM CST 6:55 PM CST
Astronomical Twilight 5:30 AM CST 7:26 PM CST
Moon 11:50 PM CST (2/20) 9:44 AM CST (2/20)
Length of Visible Light 11h 50m
Length of Day
10h 56m
Waning Gibbous, 70% of the Moon is Illuminated
Feb 20
Waning Gibbous
Feb 22
Last Quarter
Mar 1
New
Mar 8
First Quarter
Mar 16
Full

Hourly Weather History & Observations

Time (CST) Temp. Windchill Dew Point Humidity Pressure Visibility Wind Dir Wind Speed Gust Speed Precip Events Conditions
12:52 AM 42.1 °F 39.2 °F - N/A% 29.61 in - ESE 4.6 mph - 0.25 in   Unknown
1:52 AM 42.1 °F 38.4 °F - N/A% 29.58 in - East 5.8 mph - 0.02 in   Unknown
2:52 AM 42.1 °F 40.2 °F - N/A% 29.55 in - East 3.5 mph - N/A   Unknown
3:52 AM 42.1 °F 39.2 °F - N/A% 29.53 in - NE 4.6 mph - 0.01 in   Unknown
4:52 AM 41.0 °F 37.1 °F 39.9 °F 96% 29.49 in - NNE 5.8 mph - N/A   Unknown
5:52 AM 41.0 °F 37.1 °F 39.0 °F 93% 29.45 in - NNE 5.8 mph - N/A   Unknown
6:52 AM 39.9 °F 35.8 °F 39.9 °F 100% 29.46 in - North 5.8 mph - 0.39 in   Unknown
7:52 AM 39.9 °F 34.5 °F 39.0 °F 97% 29.45 in - NE 8.1 mph - 0.03 in   Unknown
8:52 AM 41.0 °F 35.2 °F 39.9 °F 96% 29.39 in - East 9.2 mph - N/A   Unknown
9:52 AM 44.1 °F 39.5 °F 42.1 °F 93% 29.31 in - East 8.1 mph - N/A   Unknown
10:52 AM 44.1 °F 39.5 °F 42.1 °F 93% 29.26 in - ESE 8.1 mph - N/A   Unknown
11:52 AM 43.0 °F 36.0 °F 39.9 °F 89% 29.30 in - WNW 13.8 mph 21.9 mph N/A   Unknown
12:52 PM 41.0 °F 33.9 °F 36.0 °F 82% 29.35 in - West 12.7 mph 24.2 mph N/A   Unknown
1:52 PM 37.9 °F 30.0 °F 34.0 °F 86% 29.41 in - WNW 12.7 mph 25.3 mph 0.05 in   Unknown
2:52 PM 39.0 °F 31.0 °F 33.1 °F 79% 29.48 in - WNW 13.8 mph 31.1 mph 0.01 in   Unknown
3:52 PM 37.9 °F 28.5 °F 32.0 °F 79% 29.59 in - West 17.3 mph 25.3 mph N/A   Unknown
4:52 PM 39.0 °F 30.3 °F 30.9 °F 73% 29.69 in - West 16.1 mph 28.8 mph N/A   Unknown
5:52 PM 39.0 °F 32.8 °F 30.0 °F 70% 29.70 in - West 9.2 mph 16.1 mph N/A   Unknown
6:52 PM 37.9 °F 33.5 °F 30.0 °F 73% 29.72 in - Variable 5.8 mph - N/A   Unknown
7:52 PM 39.0 °F 32.3 °F 28.0 °F 65% 29.72 in - West 10.4 mph - N/A   Unknown
8:52 PM 37.9 °F 31.5 °F 25.0 °F 60% 29.73 in - West 9.2 mph 18.4 mph N/A   Unknown
9:52 PM 36.0 °F 28.0 °F 23.0 °F 59% 29.74 in - WNW 11.5 mph 20.7 mph N/A   Unknown
10:52 PM 35.1 °F 25.2 °F 23.0 °F 61% 29.74 in - WNW 16.1 mph 26.5 mph N/A   Unknown
11:52 PM 33.1 °F 22.6 °F 19.0 °F 56% 29.76 in - WNW 16.1 mph 31.1 mph N/A   Unknown